SCP
0 0 0 0 0 0 0 0 0 0 0 0 0 0 0 0 0 0 0 0 0 0 0 0 0 0 0 0 0 0 0 0
0 0 0 0 0 0 0 0 0 0 0 0 0 0 0 0 0 0 0 0 0 0 0 0 0 0 0 0 0 0 0 0
0 0 0 0 0 0 0 0 0 0 0 0 0 0 0 0 0 0 0 0 0 0 0 0 0 0 0 0 0 0 0 0
0 0 0 0 0 0 0 0 0 0 0 0 0 0 0 0 0 0 0 0 0 0 0 0 0 0 0 0 0 0 0 0
0 0 0 0 0 0 0 0 0 0 0 0 0 0 0 0 0 0 0 0 0 0 0 0 0 0 0 0 0 0 0 0
0 0 0 0 0 0 0 0 0 0 0 0 0 0 0 0 0 0 0 0 0 0 0 0 0 0 0 0 0 0 0 0
0 0 0 0 0 0 0 0 0 0 0 0 0 0 0 0 0 0 0 0 0 0 0 0 0 0 0 0 0 0 0 0
0 0 0 0 0 0 0 0 0 0 0 0 0 0 0 0 0 0 0 0 0 0 0 0 0 0 0 0 0 0 0 0
0 0 0 0 0 0 0 0 0 0 0 0 0 0 0 0 0 0 0 0 0 0 0 0 0 0 0 0 0 0 0 0
0 0 0 0 0 0 0 0 0 0 0 0 0 0 0 0 0 0 0 0 0 0 0 0 0 0 -0 0 0 0 0 0
0 0 0 0 0 0 0 0 0 0 0 0 0 0 0 0 0 0 0 0 0 0 0 0 0 -0 -0 0 0 0 0 0
0 0 0 0 0 0 0 0 0 0 0 0 0 0 0 0 0 0 0 0 0 0 0 0 0 0 -0 -0 0 0 0 0
0 0 0 0 0 0 0 0 0 0 0 0 0 0 0 0 0 0 0 0 0 0 0 0 0 -0 -0 -0 -0 0 0 0
0 0 0 0 0 0 0 0 0 0 0 0 0 0 0 0 0 0 0 0 0 0 0 0 0 0 -0 -0 0 0 0 0
0 0 0 0 0 0 0 0 0 0 0 0 0 0 0 0 0 0 0 0 0 0 0 0 0 -0 -0 0 0 0 0 0
0 0 0 0 0 0 0 0 0 0 0 0 0 0 0 0 0 0 0 0 0 0 0 0 0 -0 -0 -0 0 0 0 0
0 0 0 0 0 0 0 0 0 0 0 0 0 0 0 0 0 0 0 0 0 0 0 0 -0 -0 -0 -0 -0 -0 -0 -0
0 0 0 0 0 0 0 0 0 0 0 0 0 0 0 0 0 0 0 0 0 0 0 -0 -0 -0 -0 -0 0 -0 0 0
0 0 0 0 0 0 0 0 0 0 0 0 0 0 0 0 0 0 0 0 0 0 0 0 0 -0 -0 -0 -0 0 0 0
0 0 0 0 0 0 0 0 0 0 0 0 0 0 0 0 0 0 0 0 0 0 0 0 -0 0 -0 -0 0 0 0 0
Wind_Speed_500mb
35 36 40 41 42 50 61 70 75 79 79 76 73 72 73 75 77 76 76 76 75 74 72 72 71 70 68 69 69 63 62 61
31 35 37 36 45 56 66 74 77 76 75 75 78 79 80 80 81 80 79 80 76 76 76 75 74 73 72 69 68 60 60 62
31 35 34 43 55 64 71 74 73 74 76 78 79 78 79 79 77 73 72 76 70 69 76 80 80 78 77 73 69 62 59 62
29 30 40 53 63 69 70 71 73 73 76 78 77 80 80 77 77 79 69 72 74 68 67 79 83 83 79 74 65 59 62 66
25 36 50 59 65 69 72 72 72 75 78 79 80 83 80 78 81 79 78 75 74 70 81 81 89 87 79 64 60 62 61 65
36 49 56 63 67 71 71 72 73 77 79 80 85 85 81 83 87 87 81 78 73 80 90 89 85 71 60 63 65 63 68 61
47 55 63 67 71 70 72 75 75 78 80 84 85 83 84 91 93 97 89 80 74 82 79 73 67 62 60 56 63 67 60 61
56 63 66 68 69 72 74 75 79 82 85 85 84 87 93 96 94 92 84 80 79 76 67 65 66 59 59 60 57 56 54 54
61 64 62 63 67 72 76 80 83 86 86 84 87 95 95 93 90 84 78 73 70 67 60 67 70 60 57 55 51 46 46 47
56 56 60 66 71 77 83 84 87 88 87 88 92 94 94 92 84 81 73 69 72 67 64 73 56 50 53 51 48 49 50 38
48 53 60 67 74 81 85 88 89 88 85 90 90 89 87 79 77 73 68 68 78 66 48 52 53 58 52 47 51 47 39 39
48 56 61 69 77 83 87 87 85 87 90 90 86 83 77 72 72 68 69 59 60 58 57 57 50 61 47 46 52 42 47 40
53 59 65 73 79 83 84 83 85 88 89 88 83 78 74 72 70 63 55 56 58 65 68 59 66 50 48 50 42 48 38 39
55 64 69 75 77 81 79 82 86 87 87 83 78 74 70 65 66 63 58 54 58 71 62 67 63 53 51 61 46 41 42 35
60 67 75 76 77 73 77 80 81 84 83 78 75 74 69 66 64 61 58 56 70 62 63 61 59 52 59 63 52 46 41 37
62 69 73 77 75 73 75 78 79 80 77 74 73 72 73 68 64 59 53 50 58 57 56 58 58 52 54 46 46 35 32 33
66 70 74 72 70 71 72 73 76 77 73 71 71 71 71 74 74 60 53 47 43 41 43 48 43 44 45 46 37 34 37 35
69 71 70 68 68 69 70 70 70 70 67 67 66 67 70 70 72 80 70 57 50 43 41 41 43 42 43 40 43 37 35 31
66 67 68 69 68 68 68 69 67 66 61 60 61 63 64 66 66 68 72 76 72 55 47 44 43 43 43 40 37 27 21 21
63 66 68 67 66 67 68 68 69 65 60 58 60 60 61 64 67 68 69 70 71 70 59 50 49 40 51 34 30 30 28 24
Wind_Direction_500mb
268 280 292 299 303 311 317 321 325 325 324 324 324 324 323 322 322 320 318 317 316 317 318 318 317 315 314 312 311 308 308 307
278 297 303 303 310 317 321 324 325 325 325 324 324 325 323 320 318 317 315 315 315 314 315 317 319 318 314 310 311 307 300 299
296 306 307 314 320 323 324 324 326 326 326 326 327 327 325 323 321 318 313 313 311 310 312 313 313 316 317 312 310 309 307 310
306 308 319 324 325 324 326 327 328 329 329 328 328 328 326 323 322 321 314 312 311 307 309 313 313 311 313 310 308 309 309 309
309 322 325 325 326 328 330 332 333 331 330 329 328 327 324 322 323 323 319 311 314 306 310 310 314 312 310 308 303 304 305 304
331 329 329 330 332 332 333 335 333 331 329 329 327 327 325 325 323 321 321 312 307 305 307 309 313 311 309 304 305 305 303 302
333 333 335 336 335 335 336 336 334 331 331 330 329 328 327 325 322 320 319 315 308 308 309 310 311 309 307 302 301 299 301 310
338 338 336 337 337 337 337 335 334 334 334 332 331 329 327 323 322 322 321 316 313 313 314 316 317 313 309 304 300 303 302 306
336 333 335 337 337 338 338 338 337 336 335 333 332 327 327 327 328 327 326 324 322 320 325 315 315 313 312 310 307 303 315 319
334 337 339 341 340 340 340 339 338 338 335 334 331 331 333 333 334 332 327 329 329 323 309 317 327 325 320 320 315 323 316 315
339 341 344 343 341 341 340 339 339 336 335 335 337 336 336 337 333 330 334 318 315 321 334 337 337 341 326 321 320 325 317 326
345 347 345 341 341 341 339 340 337 338 338 339 340 340 341 337 334 335 329 342 336 339 343 343 342 336 331 326 330 331 326 326
345 345 343 342 342 340 340 338 339 339 340 342 344 345 345 342 340 343 344 344 344 347 350 348 336 335 332 331 332 334 339 329
343 341 343 343 343 340 340 340 340 341 343 346 348 350 350 345 351 351 353 344 349 344 337 338 340 343 346 356 350 335 339 340
342 341 343 344 345 342 341 340 341 343 346 348 350 351 351 354 354 351 345 342 339 333 334 334 337 340 350 345 345 344 346 333
342 343 344 345 344 342 341 342 344 345 347 349 350 349 350 353 354 348 344 336 330 331 331 334 334 338 334 336 338 3 346 334
344 344 345 344 344 343 344 345 345 346 347 349 348 350 351 350 350 360 355 344 336 333 332 333 331 332 335 337 343 341 329 332
345 344 343 345 345 346 346 346 346 345 346 345 348 350 350 350 350 346 355 359 1 346 339 339 336 336 337 339 331 329 325 327
344 342 344 347 347 347 347 347 347 347 345 344 347 349 347 348 347 347 345 346 350 358 350 339 339 340 337 338 322 326 331 333
346 347 346 346 348 349 348 348 348 347 344 344 347 346 347 346 346 345 344 344 343 347 352 353 353 339 339 339 340 337 334 331
Wind_Speed_850mb
35 36 40 41 42 50 61 70 75 79 79 76 73 72 73 75 77 76 76 76 75 74 72 72 71 70 68 69 69 63 62 61
31 35 37 36 45 56 66 74 77 76 75 75 78 79 80 80 81 80 79 80 76 76 76 75 74 73 72 69 68 60 60 62
31 35 34 43 55 64 71 74 73 74 76 78 79 78 79 79 77 73 72 76 70 69 76 80 80 78 77 73 69 62 59 62
29 30 40 53 63 69 70 71 73 73 76 78 77 80 80 77 77 79 69 72 74 68 67 79 83 83 79 74 65 59 62 66
25 36 50 59 65 69 72 72 72 75 78 79 80 83 80 78 81 79 78 75 74 70 81 81 89 87 79 64 60 62 61 65
36 49 56 63 67 71 71 72 73 77 79 80 85 85 81 83 87 87 81 78 73 80 90 89 85 71 60 63 65 63 68 61
47 55 63 67 71 70 72 75 75 78 80 84 85 83 84 91 93 97 89 80 74 82 79 73 67 62 60 56 63 67 60 61
56 63 66 68 69 72 74 75 79 82 85 85 84 87 93 96 94 92 84 80 79 76 67 65 66 59 59 60 57 56 54 54
61 64 62 63 67 72 76 80 83 86 86 84 87 95 95 93 90 84 78 73 70 67 60 67 70 60 57 55 51 46 46 47
56 56 60 66 71 77 83 84 87 88 87 88 92 94 94 92 84 81 73 69 72 67 64 73 56 50 53 51 48 49 50 38
48 53 60 67 74 81 85 88 89 88 85 90 90 89 87 79 77 73 68 68 78 66 48 52 53 58 52 47 51 47 39 39
48 56 61 69 77 83 87 87 85 87 90 90 86 83 77 72 72 68 69 59 60 58 57 57 50 61 47 46 52 42 47 40
53 59 65 73 79 83 84 83 85 88 89 88 83 78 74 72 70 63 55 56 58 65 68 59 66 50 48 50 42 48 38 39
55 64 69 75 77 81 79 82 86 87 87 83 78 74 70 65 66 63 58 54 58 71 62 67 63 53 51 61 46 41 42 35
60 67 75 76 77 73 77 80 81 84 83 78 75 74 69 66 64 61 58 56 70 62 63 61 59 52 59 63 52 46 41 37
62 69 73 77 75 73 75 78 79 80 77 74 73 72 73 68 64 59 53 50 58 57 56 58 58 52 54 46 46 35 32 33
66 70 74 72 70 71 72 73 76 77 73 71 71 71 71 74 74 60 53 47 43 41 43 48 43 44 45 46 37 34 37 35
69 71 70 68 68 69 70 70 70 70 67 67 66 67 70 70 72 80 70 57 50 43 41 41 43 42 43 40 43 37 35 31
66 67 68 69 68 68 68 69 67 66 61 60 61 63 64 66 66 68 72 76 72 55 47 44 43 43 43 40 37 27 21 21
63 66 68 67 66 67 68 68 69 65 60 58 60 60 61 64 67 68 69 70 71 70 59 50 49 40 51 34 30 30 28 24
Wind_Direction_850mb
268 280 292 299 303 311 317 321 325 325 324 324 324 324 323 322 322 320 318 317 316 317 318 318 317 315 314 312 311 308 308 307
278 297 303 303 310 317 321 324 325 325 325 324 324 325 323 320 318 317 315 315 315 314 315 317 319 318 314 310 311 307 300 299
296 306 307 314 320 323 324 324 326 326 326 326 327 327 325 323 321 318 313 313 311 310 312 313 313 316 317 312 310 309 307 310
306 308 319 324 325 324 326 327 328 329 329 328 328 328 326 323 322 321 314 312 311 307 309 313 313 311 313 310 308 309 309 309
309 322 325 325 326 328 330 332 333 331 330 329 328 327 324 322 323 323 319 311 314 306 310 310 314 312 310 308 303 304 305 304
331 329 329 330 332 332 333 335 333 331 329 329 327 327 325 325 323 321 321 312 307 305 307 309 313 311 309 304 305 305 303 302
333 333 335 336 335 335 336 336 334 331 331 330 329 328 327 325 322 320 319 315 308 308 309 310 311 309 307 302 301 299 301 310
338 338 336 337 337 337 337 335 334 334 334 332 331 329 327 323 322 322 321 316 313 313 314 316 317 313 309 304 300 303 302 306
336 333 335 337 337 338 338 338 337 336 335 333 332 327 327 327 328 327 326 324 322 320 325 315 315 313 312 310 307 303 315 319
334 337 339 341 340 340 340 339 338 338 335 334 331 331 333 333 334 332 327 329 329 323 309 317 327 325 320 320 315 323 316 315
339 341 344 343 341 341 340 339 339 336 335 335 337 336 336 337 333 330 334 318 315 321 334 337 337 341 326 321 320 325 317 326
345 347 345 341 341 341 339 340 337 338 338 339 340 340 341 337 334 335 329 342 336 339 343 343 342 336 331 326 330 331 326 326
345 345 343 342 342 340 340 338 339 339 340 342 344 345 345 342 340 343 344 344 344 347 350 348 336 335 332 331 332 334 339 329
343 341 343 343 343 340 340 340 340 341 343 346 348 350 350 345 351 351 353 344 349 344 337 338 340 343 346 356 350 335 339 340
342 341 343 344 345 342 341 340 341 343 346 348 350 351 351 354 354 351 345 342 339 333 334 334 337 340 350 345 345 344 346 333
342 343 344 345 344 342 341 342 344 345 347 349 350 349 350 353 354 348 344 336 330 331 331 334 334 338 334 336 338 3 346 334
344 344 345 344 344 343 344 345 345 346 347 349 348 350 351 350 350 360 355 344 336 333 332 333 331 332 335 337 343 341 329 332
345 344 343 345 345 346 346 346 346 345 346 345 348 350 350 350 350 346 355 359 1 346 339 339 336 336 337 339 331 329 325 327
344 342 344 347 347 347 347 347 347 347 345 344 347 349 347 348 347 347 345 346 350 358 350 339 339 340 337 338 322 326 331 333
346 347 346 346 348 349 348 348 348 347 344 344 347 346 347 346 346 345 344 344 343 347 352 353 353 339 339 339 340 337 334 331